Location: Poughquag
(41.6090°N, 73.6820°W)
Time: 02:42:11
(UTC-04:00)

Altair - Pass Details

Date: 06 June 2020
Orbit: 1501 x 1683 km, 47.2° (Epoch: 06 July)

Event Time Altitude Azimuth Distance (km) Brightness Sun altitude
Rises 04:29:16 0° 297° (WNW) 4,934 9.9 -8.6°
Reaches altitude 10° 04:32:43 10° 290° (WNW) 3,948 9.4 -8.1°
Maximum altitude 04:41:45 39° 227° (SW) 2,352 8.0 -6.8°
Drops below altitude 10° 04:50:41 10° 163° (SSE) 3,886 9.4 -5.5°
Sets 04:54:04 0° 156° (SSE) 4,849 10.0 -5.0°
